Location: *
(49.0044°N, 9.5056°E)
Time: 10:05:54
(UTC+00:00)

Cosmos 1602 Rocket - Pass Details

Date: 22 September 2019
Orbit: 603 x 634 km, 82.5° (Epoch: 15 October)

Event Time Altitude Azimuth Distance (km) Brightness Sun altitude
Rises 18:44:03 0° 358° (N) 2,886 7.3 -14.3°
Reaches altitude 10° 18:46:31 10° 9° (N) 1,972 6.2 -14.7°
Maximum altitude 18:50:22 30° 71° (ENE) 1,097 4.4 -15.3°
Enters shadow 18:51:23 27° 97° (E) 1,177 4.4 -15.4°
